Date,TemperatureHighF,TemperatureAvgF,TemperatureLowF,DewpointHighF,DewpointAvgF,DewpointLowF,HumidityHigh,HumidityAvg,HumidityLow,PressureMaxIn,PressureMinIn,WindSpeedMaxMPH,WindSpeedAvgMPH,GustSpeedMaxMPH,PrecipitationSumIn
2013-1-1,75.5,65.5,55.6,61.4,53.9,46.6,92,68,46,30.25,30.06,20,2,20,0.00
2013-1-2,78.2,68.9,60.2,67.2,58.9,50.5,86,71,51,30.09,29.99,11,2,15,0.00
2013-1-3,70.4,64.0,58.9,70.3,62.8,55.4,100,96,78,30.20,30.05,16,2,16,0.08
2013-1-4,59.9,57.3,54.8,59.9,57.3,54.8,100,100,100,30.31,30.17,14,3,14,0.24
2013-1-5,73.0,62.0,54.0,64.8,57.2,51.6,100,85,71,30.33,30.21,15,4,15,0.00
2013-1-6,71.0,-1.3,-54.5,70.4,-3.6,-62.1,100,88,61,30.24,30.08,10,1,10,0.07
2013-1-7,-54.5,-54.5,-54.5,-54.5,-56.9,-62.2,100,86,61,30.25,30.14,8,4,8,0.00
2013-1-11,80.4,74.4,68.3,72.5,68.5,65.7,92,82,74,30.22,30.19,13,3,13,0.00
2013-1-12,81.2,71.1,61.6,73.5,66.6,60.8,100,86,67,30.23,30.13,11,2,11,0.00
2013-1-13,81.5,71.0,62.8,71.7,66.4,61.9,98,86,65,30.20,30.10,10,2,12,0.00
2013-1-14,79.8,70.7,63.2,72.1,66.6,62.1,100,88,73,30.22,30.14,12,2,12,0.00
2013-1-15,80.0,71.0,64.3,74.0,67.8,63.1,99,90,77,30.18,30.09,14,1,14,0.00
2013-1-16,81.4,71.9,62.6,69.6,65.2,56.9,97,81,52,30.13,30.03,13,2,13,0.00
2013-1-17,79.3,65.8,54.2,73.2,62.0,46.6,100,88,62,30.13,29.96,26,6,26,0.00
2013-1-18,66.4,55.9,42.8,64.9,51.2,38.1,100,84,72,30.30,30.13,22,6,22,0.01
2013-1-19,74.2,65.0,57.7,68.7,61.1,55.8,94,87,77,30.32,30.18,16,4,16,0.00
2013-1-20,71.8,64.1,60.8,70.6,61.4,55.2,100,91,74,30.21,30.09,13,3,13,0.00
2013-1-21,74.3,65.7,61.5,69.3,60.9,56.6,90,84,71,30.13,30.02,11,1,11,0.00
2013-1-22,62.9,58.6,50.9,57.9,47.4,36.3,88,67,47,30.31,30.09,18,4,18,0.00
2013-1-23,67.8,55.8,46.0,52.8,45.3,36.9,87,68,51,30.40,30.29,12,1,12,0.00
2013-1-24,73.0,59.7,46.7,60.0,50.7,44.9,97,74,49,30.35,30.24,15,1,15,0.00
2013-1-25,75.0,63.1,52.9,62.5,55.2,49.2,100,78,49,30.34,30.21,10,0,10,0.00
2013-1-26,75.8,63.4,50.7,64.2,55.9,48.8,97,78,55,30.30,30.19,11,1,11,0.00
2013-1-27,78.5,66.2,55.0,68.1,61.8,54.3,100,86,67,30.35,30.26,13,3,16,0.00
2013-1-28,77.1,70.4,64.9,72.2,66.0,62.6,93,86,75,30.37,30.27,17,3,17,0.00
2013-1-29,81.5,72.0,65.3,74.0,68.1,64.8,99,88,70,30.29,30.13,16,2,16,0.00
2013-1-30,82.0,73.7,65.5,72.0,66.4,60.8,97,79,57,30.15,29.91,27,6,27,0.00
2013-1-31,71.7,59.6,49.4,67.1,47.0,29.4,97,66,34,30.26,29.92,21,4,21,0.07
2013-2-1,69.3,54.7,41.0,46.1,38.0,31.3,87,56,31,30.38,30.25,14,1,14,0.00
2013-2-2,71.7,58.0,43.4,53.8,45.3,38.1,91,64,40,30.35,30.18,13,1,13,0.00
2013-2-3,70.3,58.1,44.7,59.4,47.0,38.3,96,69,43,30.22,30.09,19,2,19,0.00
2013-2-4,71.0,57.5,45.2,52.2,45.7,38.1,96,68,37,30.17,30.06,11,1,11,0.00
2013-2-5,76.0,61.7,46.2,62.5,51.8,44.4,95,72,46,30.14,30.02,14,2,14,0.00
2013-2-6,78.1,68.4,59.8,70.3,62.4,53.8,93,81,67,30.14,30.06,13,1,13,0.00
2013-2-7,80.5,73.0,65.8,70.5,64.2,57.4,90,75,52,30.12,29.90,21,4,21,0.00
2013-2-8,79.0,70.9,61.8,66.6,62.4,52.8,93,76,48,30.11,29.90,18,5,18,0.00
2013-2-9,74.3,63.4,56.6,65.0,58.6,54.8,95,85,68,30.25,30.10,18,3,18,0.00
2013-2-10,75.8,66.7,58.7,68.2,59.8,55.3,91,79,65,30.32,30.21,20,4,20,0.00
2013-2-11,81.2,70.6,59.8,70.2,63.4,58.0,96,79,53,30.24,30.10,19,4,19,0.00
2013-2-12,84.0,74.2,64.5,72.8,66.2,59.2,97,78,49,30.13,29.95,14,3,16,0.00
2013-2-13,85.5,74.3,65.2,74.7,69.4,61.4,97,85,65,30.00,29.83,25,6,25,0.37
2013-2-14,67.3,63.3,57.4,66.5,62.1,56.9,100,96,87,30.09,29.94,14,1,14,0.25
2013-2-15,69.4,59.4,54.0,65.7,57.3,53.4,100,93,67,30.12,29.99,11,2,11,0.04
2013-2-16,68.0,57.9,49.5,55.7,47.4,26.8,97,71,31,30.15,29.92,28,5,28,0.00
2013-2-17,53.4,45.8,37.1,33.0,25.4,16.8,73,46,28,30.38,30.15,21,2,21,0.00
2013-2-18,67.0,52.6,37.4,55.5,42.7,26.4,92,70,44,30.40,30.25,18,2,19,0.00
2013-2-19,78.3,65.2,49.9,64.1,55.1,48.3,96,72,47,30.26,30.08,20,3,20,0.00
2013-2-20,75.3,64.7,60.4,68.2,59.2,54.3,94,82,72,30.17,30.05,15,3,15,0.00
2013-2-21,82.3,69.4,58.8,71.5,62.9,52.8,93,80,66,30.14,30.03,12,2,12,0.00
2013-2-22,85.3,73.2,63.6,76.0,69.0,63.1,99,88,63,30.12,30.02,16,3,16,0.00
2013-2-23,86.8,77.1,71.0,74.3,69.2,59.9,95,78,48,30.05,29.89,19,6,19,0.00
2013-2-24,75.8,70.3,65.9,75.8,69.5,65.0,100,97,91,30.00,29.89,12,1,12,0.20
2013-2-25,85.4,73.4,66.0,76.1,69.1,65.1,98,88,57,29.96,29.79,19,2,19,0.33
2013-2-26,78.5,72.6,66.2,78.0,70.0,60.7,100,92,72,29.89,29.77,25,6,25,0.15
2013-2-27,74.3,66.7,57.6,64.0,58.9,50.3,94,77,52,29.99,29.88,16,4,16,0.00
2013-2-28,73.3,62.2,52.4,61.4,52.2,45.3,93,71,43,30.03,29.90,22,5,22,0.00
2013-3-1,64.6,56.5,50.1,50.6,45.0,35.3,90,67,40,30.03,29.93,17,4,17,0.00
2013-3-2,59.2,51.7,44.7,46.2,38.2,31.8,72,60,47,30.06,29.97,28,6,28,0.00
2013-3-3,52.6,45.3,38.3,43.1,35.6,30.8,85,69,53,30.20,30.02,24,5,24,0.00
2013-3-4,65.5,50.4,36.7,42.6,36.8,27.6,92,62,35,30.28,30.15,14,1,14,0.00
2013-3-5,76.5,61.8,45.3,59.1,47.1,31.9,95,62,27,30.22,30.04,19,3,19,0.00
2013-3-6,68.0,60.4,49.9,62.7,45.6,31.4,95,60,39,30.17,29.95,25,7,25,0.00
2013-3-7,67.0,53.4,41.7,54.0,44.4,34.9,93,72,48,30.24,30.15,15,2,15,0.00
2013-3-8,73.3,58.0,45.4,57.9,49.1,45.1,99,75,43,30.25,30.15,15,2,15,0.00
2013-3-9,73.8,61.0,48.8,61.8,53.5,47.9,97,78,58,30.27,30.17,18,2,18,0.00
2013-3-10,76.8,65.2,55.9,64.6,58.1,54.4,96,79,58,30.22,30.13,16,4,24,0.00
2013-3-11,78.2,68.0,59.4,64.9,59.4,54.0,92,75,49,30.16,29.96,15,4,17,0.00
2013-3-12,71.5,67.2,59.3,69.9,64.1,58.4,100,90,77,30.04,29.91,18,5,18,0.20
2013-3-13,74.3,61.3,50.6,58.4,43.1,28.1,98,59,19,30.20,30.04,20,4,20,0.01
2013-3-14,55.9,54.2,52.3,49.2,45.6,42.8,80,72,68,30.20,30.18,7,0,7,0.00
2013-3-28,70.5,63.4,54.6,47.8,36.3,23.3,77,40,18,30.34,30.23,16,3,16,0.00
2013-3-29,74.2,60.6,47.8,49.9,41.2,30.5,93,57,21,30.37,30.25,13,2,13,0.00
2013-3-30,78.0,64.8,49.7,55.4,48.4,40.5,94,60,28,30.31,30.16,16,2,16,0.00
2013-3-31,80.8,71.3,62.2,57.3,52.3,45.8,79,54,31,30.23,30.04,20,4,20,0.00
2013-4-1,84.0,73.6,65.0,66.7,59.8,53.9,90,65,37,30.09,29.96,21,5,24,0.00
2013-4-2,82.7,71.8,63.2,65.6,57.8,45.0,98,67,30,30.13,30.04,16,4,16,0.00
2013-4-3,83.3,72.1,62.7,70.0,62.8,53.6,95,76,43,30.13,30.01,17,4,17,0.19
2013-4-4,75.8,71.4,68.3,70.4,67.5,63.1,98,88,72,30.08,29.88,27,4,27,0.08
2013-4-5,76.0,67.8,58.0,68.3,63.6,57.2,98,87,60,30.04,29.85,18,5,18,0.15
2013-4-6,75.7,65.1,55.4,61.3,56.9,53.3,99,77,49,30.19,30.02,18,6,18,0.01
2013-4-7,80.9,69.1,59.5,65.3,59.3,53.3,100,75,39,30.22,30.10,19,4,19,0.00
2013-4-8,81.5,71.5,61.1,66.9,61.1,54.8,98,73,43,30.19,30.11,18,3,18,0.00
2013-4-9,82.5,73.4,66.5,69.9,62.2,55.3,97,72,41,30.22,30.12,18,4,18,0.00
2013-4-10,84.8,73.7,63.3,71.4,65.2,58.5,98,77,44,30.17,30.02,15,3,15,0.00
2013-4-11,86.4,77.4,70.8,72.1,69.9,63.6,98,80,48,30.03,29.87,20,5,20,0.00
2013-4-12,85.6,78.8,73.8,73.9,70.4,65.1,95,77,51,29.95,29.85,22,6,22,0.00
2013-4-13,83.3,75.6,68.3,71.7,66.2,58.8,93,74,49,30.04,29.91,14,3,14,0.00
2013-4-14,85.8,74.8,67.5,74.3,68.1,63.4,97,80,59,30.04,29.85,18,4,19,3.37
2013-4-15,88.8,75.4,66.8,67.6,63.6,58.5,94,70,38,30.12,29.94,17,2,17,0.00
2013-4-16,85.5,75.8,68.4,72.5,67.6,64.4,99,78,50,30.20,30.10,19,4,19,0.00
2013-4-17,82.4,73.9,67.3,71.3,66.7,60.1,100,80,50,30.20,30.09,18,3,18,0.00
2013-4-18,87.0,76.6,67.3,72.8,66.9,58.9,98,75,40,30.12,30.00,14,3,14,0.00
2013-4-19,89.8,78.9,72.5,73.7,69.9,60.1,97,77,40,30.07,29.93,24,5,24,0.00
2013-4-20,75.0,67.9,60.7,72.2,64.3,58.6,94,89,75,30.20,29.99,18,4,18,0.15
2013-4-21,79.8,70.2,62.1,72.2,67.2,59.4,98,91,68,30.19,30.06,20,4,20,2.03
2013-4-22,79.7,69.9,65.9,69.6,67.4,64.5,100,92,61,30.12,30.04,19,4,19,0.22
2013-4-23,79.8,70.8,63.5,66.9,62.3,51.8,99,78,40,30.17,30.05,17,5,17,0.00
2013-4-24,84.8,71.6,60.3,66.5,60.6,55.0,100,73,39,30.19,30.10,14,2,14,0.00
2013-4-25,87.0,75.0,63.6,67.9,60.9,47.6,97,66,26,30.25,30.14,12,2,12,0.00
2013-4-26,86.5,76.0,67.2,68.9,64.3,56.9,95,70,38,30.28,30.19,18,3,18,0.00
2013-4-27,83.3,74.7,67.3,70.1,64.9,57.5,98,74,43,30.27,30.16,19,4,20,0.00
2013-4-28,80.7,73.5,68.2,71.0,65.2,57.5,95,77,48,30.19,30.05,19,3,19,0.01
2013-4-29,85.3,75.0,68.3,71.4,64.3,53.0,97,73,36,30.08,29.94,20,3,20,1.62
2013-4-30,86.6,74.2,67.9,71.2,66.9,58.6,99,82,41,30.06,29.96,17,1,17,0.51
2013-5-1,80.0,73.0,69.1,72.2,70.1,67.7,99,91,67,30.06,29.99,14,2,14,0.41
2013-5-2,76.9,71.2,66.7,71.8,69.4,65.5,99,95,78,30.01,29.87,18,3,18,1.49
2013-5-3,77.8,71.5,67.8,71.6,68.9,66.7,99,92,70,29.89,29.71,24,5,24,1.26
2013-5-4,83.5,74.0,68.6,72.2,68.9,63.3,99,86,52,29.83,29.71,22,2,22,0.06
2013-5-5,78.8,71.0,62.5,69.0,53.1,40.6,98,58,27,29.98,29.80,19,6,19,0.00
2013-5-6,77.9,69.5,62.9,63.3,55.0,46.9,90,62,36,30.04,29.93,18,5,18,0.00
2013-5-7,79.2,68.8,58.1,63.0,55.6,49.3,95,66,39,30.10,30.00,17,4,17,0.00
2013-5-8,82.5,72.5,62.0,65.1,58.6,52.0,97,66,37,30.18,30.06,22,3,22,0.00
2013-5-9,85.5,73.9,63.5,68.0,61.2,52.1,97,69,34,30.19,30.11,13,2,13,0.00
2013-5-10,89.8,77.4,66.7,73.1,67.2,55.8,98,74,33,30.18,30.04,16,2,16,0.04
2013-5-11,89.8,78.6,70.8,73.4,68.1,62.2,95,72,42,30.10,30.00,18,4,18,0.04
2013-5-12,88.8,79.3,70.9,73.4,66.1,60.3,97,67,40,30.08,29.97,20,4,20,0.00
2013-5-13,83.3,73.9,66.9,68.6,60.0,46.8,93,66,30,30.18,30.04,18,3,19,0.00
2013-5-14,83.3,71.1,59.4,60.2,54.4,41.3,96,61,26,30.25,30.17,16,3,16,0.00
2013-5-15,84.5,73.3,61.9,64.8,57.6,50.1,96,62,32,30.25,30.15,14,3,14,0.00
2013-5-16,86.1,75.1,65.9,65.4,61.1,52.9,91,65,33,30.17,30.07,14,3,14,0.00
2013-5-17,87.3,76.1,66.2,69.5,64.7,57.3,93,70,38,30.14,30.08,19,3,19,0.00
2013-5-18,90.6,78.4,69.4,72.6,67.9,56.9,96,74,34,30.17,30.06,18,2,18,0.00
2013-5-19,87.8,77.7,73.4,73.3,71.0,65.2,95,81,48,30.14,30.05,16,3,16,0.00
2013-5-20,89.3,77.4,72.2,73.8,69.9,60.8,96,81,40,30.13,30.03,17,2,17,0.06
2013-5-21,81.3,74.0,69.9,72.7,70.8,66.3,98,90,66,30.08,29.99,13,1,13,1.20
2013-5-22,85.8,76.0,70.1,74.7,71.1,64.2,98,86,50,30.01,29.96,20,2,20,0.12
2013-5-23,91.0,77.6,70.8,74.2,69.5,63.1,98,79,40,30.04,29.94,17,2,17,0.02
2013-5-24,93.3,80.5,71.8,74.9,65.8,50.8,98,67,25,30.14,30.01,15,3,15,0.00
2013-5-25,85.6,76.7,69.4,69.8,63.3,55.4,96,66,40,30.25,30.12,18,4,18,0.00
2013-5-26,84.8,73.7,63.2,64.1,59.2,50.8,95,64,33,30.27,30.19,20,3,20,0.00
2013-5-27,85.3,75.2,65.8,67.1,62.7,55.7,95,68,38,30.24,30.16,19,4,19,0.00
2013-5-28,87.0,77.4,68.2,73.2,68.5,64.2,96,76,48,30.20,30.13,22,5,22,0.00
2013-5-29,84.8,78.3,73.0,75.3,72.3,67.3,95,83,57,30.18,30.11,22,6,22,0.08
2013-5-30,85.7,78.1,73.2,75.9,72.5,65.6,96,84,54,30.17,30.09,29,6,29,0.28
2013-5-31,84.7,78.2,73.2,76.1,71.5,67.2,94,81,57,30.16,30.09,25,6,25,0.05
2013-6-1,86.5,78.8,73.9,76.5,73.6,70.9,97,85,62,30.12,30.02,19,5,19,0.40
2013-6-2,90.6,79.2,74.0,77.4,74.1,67.8,99,86,48,30.07,29.93,17,2,17,0.12
2013-6-3,89.8,80.2,75.0,76.9,73.6,66.4,98,82,47,30.04,29.91,16,2,16,0.03
2013-6-4,86.8,78.7,74.6,75.3,72.4,65.0,94,82,49,30.09,29.97,21,2,21,0.00
2013-6-5,84.7,76.1,73.9,76.4,73.5,70.1,98,92,67,30.07,29.96,15,1,15,1.94
2013-6-6,79.1,75.7,73.4,77.1,74.1,69.2,98,95,77,29.97,29.71,23,5,23,2.23
2013-6-7,88.7,80.6,73.9,74.7,71.8,67.4,96,76,53,29.99,29.80,15,5,16,0.00
2013-6-8,90.1,78.2,71.5,77.0,72.5,68.2,98,84,50,30.14,29.99,27,1,27,1.79
2013-6-9,89.0,79.5,71.7,77.2,72.0,66.9,98,80,51,30.17,30.07,15,3,15,0.00
2013-6-10,89.8,81.0,75.2,76.9,74.1,66.9,97,81,48,30.14,30.05,15,2,15,0.00
2013-6-11,91.7,79.1,73.8,78.5,73.8,66.9,97,86,47,30.13,30.05,30,1,30,0.86
2013-6-12,94.2,81.8,72.2,75.8,71.4,64.2,98,74,38,30.14,30.02,14,2,14,0.01
2013-6-13,93.8,83.6,75.5,75.6,71.5,64.7,92,70,40,30.07,29.93,15,3,15,0.00
2013-6-14,92.0,83.7,76.4,75.4,70.3,62.0,93,67,38,29.98,29.87,19,4,19,0.00
2013-6-15,89.6,82.1,77.3,77.0,74.1,69.5,95,77,54,30.13,29.95,34,6,35,0.00
2013-6-16,87.7,81.0,78.1,78.7,75.2,71.3,95,83,60,30.14,30.07,19,3,19,1.38
2013-6-17,90.0,81.1,75.2,79.0,75.8,68.5,97,85,50,30.13,30.01,17,2,17,0.57
2013-6-18,92.7,81.1,73.2,77.2,72.8,65.1,97,79,44,30.13,29.98,19,2,19,0.31
2013-6-19,93.2,82.6,74.6,76.7,72.5,64.2,96,74,42,30.08,29.98,27,3,27,0.00
2013-6-20,92.9,80.6,75.0,75.7,72.9,64.6,97,79,45,30.14,30.05,25,2,25,0.14
2013-6-21,90.8,78.1,73.0,75.7,72.6,67.2,98,85,46,30.16,30.09,19,1,19,0.30
2013-6-22,90.8,80.9,72.7,77.8,70.9,63.2,99,75,42,30.16,30.09,13,2,13,0.01
2013-6-23,88.0,79.9,74.0,77.6,74.2,67.6,97,84,52,30.20,30.12,18,2,18,0.01
2013-6-24,90.7,81.9,75.4,77.4,72.5,65.7,96,75,45,30.23,30.13,19,2,19,0.00
2013-6-25,90.0,82.1,74.7,77.3,73.0,65.1,96,76,48,30.21,30.09,17,3,17,0.00
2013-6-26,91.7,81.0,76.7,77.1,73.9,67.8,96,80,49,30.13,30.05,23,3,23,0.00
2013-6-27,94.5,82.3,74.2,75.9,72.1,67.3,96,74,43,30.09,29.98,13,2,13,0.00
2013-6-28,92.5,80.2,75.2,77.8,74.3,70.4,96,84,50,30.02,29.89,21,3,21,0.24
2013-6-29,88.3,81.1,76.0,77.7,74.0,68.2,96,80,56,29.93,29.85,17,4,18,0.00
2013-6-30,90.5,78.0,74.1,77.8,74.6,66.0,99,90,55,29.95,29.87,35,4,35,0.41
2013-7-1,86.1,77.4,74.4,75.8,73.7,69.5,99,89,66,30.08,29.92,23,5,23,0.27
2013-7-2,85.2,76.7,74.1,78.5,74.9,73.3,100,95,76,30.16,30.02,22,2,22,0.64
2013-7-3,86.5,78.8,74.5,78.9,75.5,72.9,98,90,69,30.19,30.11,18,3,18,0.06
2013-7-4,88.9,80.6,74.5,77.8,73.5,68.8,97,80,57,30.21,30.12,21,4,25,0.01
2013-7-5,88.6,81.4,76.2,79.2,74.1,67.7,96,80,52,30.22,30.11,21,4,21,0.03
2013-7-6,89.5,81.8,75.7,76.8,73.9,69.1,96,78,53,30.18,30.10,27,4,34,0.00
2013-7-7,90.7,82.4,76.3,78.3,74.4,67.9,96,78,48,30.19,30.10,26,4,26,0.03
2013-7-8,97.8,84.2,76.4,78.7,74.1,69.6,97,75,44,30.21,30.13,17,3,18,0.00
2013-7-9,99.0,83.1,69.7,78.8,71.2,65.5,97,71,37,30.20,30.11,20,4,20,0.00
2013-7-10,94.8,81.9,71.3,82.7,71.9,68.3,97,74,43,30.14,30.02,16,2,16,0.00
2013-7-11,97.3,82.4,75.1,80.3,72.0,65.0,94,74,35,30.09,29.96,20,3,20,0.05
2013-7-12,89.6,80.2,73.5,78.3,74.4,69.8,95,84,53,30.00,29.94,15,2,18,0.02
2013-7-13,92.2,79.4,74.9,76.7,73.6,69.7,97,83,50,30.06,29.95,28,2,28,0.00
2013-7-14,88.5,77.5,73.0,76.1,73.5,72.2,98,88,60,30.12,30.02,21,2,21,0.62
2013-7-18,88.0,80.9,75.2,74.8,72.4,68.9,93,76,57,30.16,30.09,30,4,30,0.00
2013-7-19,88.3,78.4,73.4,75.9,73.3,70.4,98,86,59,30.18,30.07,18,2,18,1.26
2013-7-20,91.2,79.0,73.7,79.7,74.1,68.9,98,86,51,30.14,30.06,22,1,26,0.01
2013-7-21,93.0,80.7,74.9,79.1,74.2,69.0,96,82,49,30.16,30.05,14,2,14,0.08
2013-7-22,92.1,80.6,75.7,78.3,74.5,70.7,96,83,50,30.16,30.10,12,3,16,0.08
2013-7-23,85.9,79.2,75.8,78.1,74.9,71.9,97,87,65,30.14,29.98,21,3,21,0.01
2013-7-24,86.8,80.9,76.4,79.7,75.4,70.0,97,84,63,30.03,29.90,20,4,20,0.08
2013-7-25,86.8,81.5,77.5,77.3,75.6,72.2,95,83,65,30.01,29.89,22,4,22,0.00
2013-7-26,97.3,84.2,75.9,79.7,75.0,70.5,98,77,43,30.04,29.98,15,2,15,0.10
2013-7-27,96.8,81.8,76.6,79.2,75.6,70.2,99,84,44,30.03,29.92,16,1,16,0.17
2013-7-28,92.5,79.2,73.0,78.6,74.0,67.8,98,86,46,30.11,29.97,16,1,16,0.43
2013-7-29,97.3,82.0,73.5,78.6,74.3,69.8,98,80,44,30.19,30.06,14,1,15,0.01
2013-7-30,94.0,83.8,76.9,79.9,74.5,68.7,96,76,46,30.20,30.11,17,2,17,0.00
2013-7-31,93.3,82.7,77.7,79.0,75.2,68.9,96,79,49,30.17,30.03,14,1,14,0.00
2013-8-1,93.0,80.4,75.7,77.5,73.8,67.2,95,82,44,30.11,29.99,21,2,23,0.14
2013-8-2,97.1,83.6,75.1,80.4,73.5,69.2,98,75,43,30.07,29.97,14,2,14,0.01
2013-8-3,93.8,80.6,75.8,79.3,75.4,68.2,98,86,47,30.13,30.03,22,2,22,0.36
2013-8-4,91.3,81.3,75.7,80.2,76.3,72.9,99,86,55,30.12,30.01,18,2,18,0.01
2013-8-5,94.3,81.7,76.4,79.9,76.8,71.2,97,86,49,30.05,29.94,14,2,18,0.93
2013-8-6,96.0,82.9,74.7,81.7,75.6,71.5,99,81,47,30.01,29.93,18,2,18,0.00
2013-8-7,94.7,84.1,77.7,80.7,76.0,71.6,97,78,50,30.01,29.95,12,2,26,0.00
2013-8-8,92.3,83.8,78.0,78.6,74.9,67.4,96,77,47,30.09,29.99,20,3,20,0.00
2013-8-9,95.1,83.8,77.8,79.4,74.2,67.4,95,75,45,30.12,30.02,19,3,19,0.00
2013-8-10,93.3,83.6,76.3,77.9,73.7,67.5,93,74,47,30.17,30.08,14,3,14,0.02
2013-8-11,99.0,84.3,76.4,79.6,74.1,66.5,97,74,40,30.20,30.11,15,2,15,0.00
2013-8-12,97.8,84.7,75.9,77.9,73.1,64.8,96,71,42,30.17,30.04,12,2,13,0.00
2013-8-13,97.3,85.4,76.9,76.8,72.3,62.4,94,69,35,30.09,29.95,14,2,14,0.00
2013-8-14,97.1,82.5,76.1,78.2,75.1,69.3,96,81,42,30.05,29.92,26,2,26,0.11
2013-8-15,93.7,82.7,76.1,77.7,74.1,65.1,96,78,39,30.08,29.95,14,2,16,0.00
2013-8-16,92.2,82.4,77.1,78.4,75.3,65.7,95,81,43,30.11,29.99,23,2,23,0.38
2013-8-17,95.3,83.2,77.5,80.9,76.9,72.4,99,83,52,30.12,30.01,15,2,15,0.08
2013-8-18,89.7,83.4,77.4,78.4,76.0,70.9,97,79,55,30.14,30.04,18,3,18,0.00
2013-8-19,95.8,81.9,76.9,80.0,76.8,73.1,97,86,50,30.13,30.01,21,2,21,0.48
2013-8-20,93.8,83.7,76.6,79.7,74.7,67.1,98,77,45,30.13,30.03,18,4,18,0.00
2013-8-21,93.0,81.6,76.9,79.7,76.8,73.9,95,86,56,30.14,30.07,25,3,25,0.07
2013-8-22,89.4,80.7,77.2,80.4,77.2,74.9,97,90,64,30.12,30.03,14,2,14,0.00
2013-8-23,92.5,82.0,76.6,81.0,76.7,72.7,99,85,54,30.06,29.98,17,2,17,0.00
2013-8-24,95.0,80.1,75.8,79.7,75.9,72.0,98,89,49,30.16,30.04,17,1,17,0.32
2013-8-25,88.3,79.2,75.0,80.8,75.8,73.7,100,90,65,30.20,30.12,17,1,17,1.46
2013-8-26,93.1,82.0,75.0,79.9,74.6,70.3,99,80,50,30.19,30.06,18,4,18,0.01
2013-8-27,92.8,81.7,73.9,77.3,70.2,64.1,97,71,42,30.11,30.04,19,4,19,0.00
2013-8-28,95.3,82.0,72.1,77.4,69.3,63.9,97,69,37,30.10,30.02,14,2,14,0.00
2013-8-29,96.3,83.0,74.4,76.1,71.0,65.0,95,70,37,30.08,29.96,13,1,13,0.00
2013-8-30,98.8,83.9,76.2,77.0,73.6,68.2,94,73,41,30.03,29.92,13,1,13,0.00
2013-8-31,92.8,81.8,73.9,76.9,73.5,69.0,97,78,47,30.02,29.91,18,2,18,0.69
2013-9-1,94.4,80.2,74.0,77.0,73.3,69.3,98,82,45,30.05,29.93,28,2,28,0.53
2013-9-2,95.4,80.7,74.2,77.0,73.9,67.3,98,82,43,30.06,29.96,22,1,30,1.54
2013-9-3,93.3,82.6,74.6,78.2,72.7,65.6,98,75,42,30.06,29.95,12,2,12,0.00
2013-9-4,93.3,82.2,76.4,77.4,74.0,69.7,94,78,47,30.14,30.02,16,1,16,0.08
2013-9-5,95.2,82.8,73.8,79.6,75.4,72.7,97,80,49,30.14,30.04,14,2,14,0.00
2013-9-6,93.0,79.2,72.5,81.7,75.3,70.9,100,89,50,30.09,30.01,23,1,23,0.79
2013-9-7,94.8,79.8,73.3,82.2,73.9,68.8,100,84,44,30.06,29.96,12,2,12,0.02
2013-9-8,95.0,81.8,73.9,78.6,72.8,68.3,98,77,45,30.01,29.91,14,3,14,0.00
2013-9-9,95.1,82.2,73.2,76.0,71.6,64.4,97,74,38,30.08,29.98,17,4,17,0.00
2013-9-10,93.0,82.2,74.2,76.1,71.8,64.3,97,74,40,30.14,30.04,36,4,36,0.00
2013-9-11,93.3,82.6,75.0,77.4,72.6,65.5,97,75,43,30.12,30.04,18,4,18,0.01
2013-9-12,92.0,80.8,75.2,80.6,74.6,69.6,98,83,50,30.07,29.93,34,2,34,0.01
2013-9-13,96.0,82.1,74.4,76.6,72.9,67.7,98,77,42,29.95,29.83,13,1,13,0.03
2013-9-14,96.9,83.6,76.6,78.6,74.2,68.2,97,76,41,30.03,29.87,16,1,16,0.00
2013-9-15,94.0,81.8,76.2,79.1,75.7,70.1,97,83,48,30.12,30.01,23,2,23,0.00
2013-9-16,93.3,81.5,73.9,79.1,73.0,68.4,98,77,47,30.12,30.03,17,3,17,0.00
2013-9-17,93.0,81.8,74.8,78.6,73.5,68.9,98,78,49,30.10,30.01,27,4,27,0.05
2013-9-18,91.0,80.6,75.0,79.1,73.4,68.5,98,80,53,30.08,30.01,33,4,33,0.02
2013-9-19,92.0,80.5,74.3,77.7,72.3,68.0,97,78,47,30.08,30.01,17,4,17,0.00
2013-9-20,91.8,80.0,70.7,73.1,69.3,65.7,95,73,45,30.07,29.96,14,3,14,0.00
2013-9-21,93.0,80.4,71.6,74.6,69.8,65.8,97,73,42,29.99,29.80,12,2,12,0.00
2013-9-22,90.7,79.3,74.9,78.5,73.5,68.5,100,84,51,29.90,29.78,21,2,28,0.30
2013-9-23,87.2,77.4,74.3,80.2,75.7,73.9,100,95,72,30.00,29.88,9,1,9,1.44
2013-9-24,85.2,77.5,73.8,78.2,75.4,72.0,100,94,71,30.00,29.88,18,2,18,0.30
2013-9-25,82.4,77.9,74.9,75.8,73.6,71.3,98,87,71,29.88,29.81,16,4,16,0.01
2013-9-26,92.8,81.4,74.4,78.2,72.8,57.4,98,78,33,29.91,29.80,20,5,20,0.00
2013-9-27,84.6,75.5,71.2,75.8,72.7,70.4,99,91,68,30.00,29.89,15,3,16,0.08
2013-9-28,86.2,76.9,71.8,76.3,72.1,67.4,100,86,58,30.06,29.96,15,3,15,0.00
2013-9-29,92.2,78.6,70.4,74.8,69.9,65.1,98,77,42,30.04,29.96,16,2,16,0.00
2013-9-30,93.2,78.7,70.5,76.5,70.8,63.7,99,80,40,30.07,29.96,14,2,14,0.00
2013-10-1,92.3,79.7,73.3,75.6,71.6,68.3,96,78,47,30.12,30.03,16,3,16,0.00
2013-10-2,90.2,78.5,70.1,71.2,69.4,67.3,96,76,50,30.12,30.04,14,2,14,0.00
2013-10-3,92.8,79.5,70.1,75.6,70.2,64.3,98,76,42,30.11,30.03,15,2,15,0.00
2013-10-4,92.8,80.1,72.3,78.7,71.7,67.2,99,78,44,30.12,30.03,14,2,14,0.00
2013-10-5,91.3,79.9,72.0,77.5,71.8,67.0,98,79,46,30.11,30.01,17,3,17,0.00
2013-10-6,91.3,79.1,73.1,79.0,73.6,68.5,99,85,50,30.03,29.90,20,1,20,1.31
2013-10-7,84.5,77.1,73.6,78.1,74.4,72.0,100,92,72,29.93,29.79,22,2,22,0.36
2013-10-8,88.0,78.5,74.6,76.6,74.5,71.5,99,89,59,29.99,29.81,22,5,22,0.03
2013-10-9,83.3,74.3,68.7,73.0,70.4,67.0,96,88,61,30.08,29.96,17,6,20,0.00
2013-10-10,89.0,75.6,66.3,69.6,67.1,63.4,99,78,43,30.09,30.01,13,3,13,0.00
2013-10-11,88.3,76.0,64.8,71.7,65.4,60.5,100,73,41,30.08,29.98,12,1,12,0.00
2013-10-12,89.5,77.2,67.4,73.7,64.8,56.8,99,70,35,30.09,30.01,12,1,12,0.00
2013-10-13,89.8,77.2,66.4,72.1,63.8,57.0,98,67,35,30.13,30.03,14,2,14,0.00
2013-10-14,89.8,76.4,69.3,72.0,68.2,63.9,98,78,44,30.09,29.98,15,3,15,0.00
2013-10-15,83.3,74.1,69.5,74.2,70.9,67.8,100,91,61,30.04,29.91,13,1,13,0.00
2013-10-16,90.3,77.4,71.3,76.9,70.1,60.5,100,82,38,30.01,29.92,10,1,10,0.00
2013-10-17,93.7,78.5,70.4,76.5,70.1,62.5,100,80,37,30.01,29.92,11,2,11,0.00
2013-10-18,91.4,79.7,72.6,75.0,70.6,62.2,98,77,39,30.03,29.93,12,2,12,0.00
2013-10-19,89.0,80.4,73.0,75.8,71.3,64.5,96,76,46,30.01,29.91,12,2,12,0.00
2013-10-20,88.5,79.3,74.4,76.3,73.2,70.3,97,83,55,30.02,29.91,13,2,14,0.00
2013-10-21,92.8,79.5,73.0,77.4,73.3,67.9,98,83,46,30.04,29.93,13,2,13,0.96
2013-10-22,89.3,80.3,74.3,76.7,72.3,67.2,99,79,49,29.99,29.84,18,3,18,0.00
2013-10-23,84.5,75.9,67.4,72.5,62.5,51.0,95,66,35,30.06,29.84,18,4,18,0.00
2013-10-24,74.0,66.9,62.5,60.5,55.9,46.6,93,68,52,30.20,30.05,14,4,14,0.00
2013-10-25,82.8,68.7,58.6,63.5,56.2,46.1,100,71,31,30.27,30.19,13,2,13,0.00
2013-10-26,81.5,68.3,58.2,60.3,56.1,47.1,96,70,31,30.25,30.14,12,1,12,0.00
2013-10-27,83.0,67.6,57.4,63.5,56.4,49.7,100,72,33,30.19,30.11,12,2,12,0.00
2013-10-28,86.3,70.2,58.2,66.1,60.5,56.3,99,76,37,30.24,30.15,12,2,12,0.00
2013-10-29,85.5,72.9,62.6,70.7,64.6,57.8,100,79,44,30.26,30.19,18,3,18,0.00
2013-10-30,86.5,74.6,67.2,73.2,67.0,61.6,99,80,45,30.27,30.16,16,2,16,0.03
2013-10-31,85.0,75.6,66.9,72.1,67.3,61.3,99,78,47,30.18,30.03,16,3,16,0.00
2013-11-1,87.8,78.7,71.1,73.6,67.9,61.2,98,72,43,30.06,29.89,22,4,22,0.00
2013-11-2,76.2,70.0,63.9,73.0,68.2,63.4,99,94,79,30.02,29.85,21,2,21,0.40
2013-11-3,79.2,66.9,57.7,63.4,55.3,39.2,100,72,29,30.16,29.99,18,3,20,0.01
2013-11-4,80.5,69.9,63.1,67.0,61.7,53.9,91,77,43,30.22,30.14,21,4,21,0.01
2013-11-5,84.5,74.1,68.4,69.8,67.3,61.4,96,81,50,30.22,30.14,25,6,25,0.08
2013-11-6,82.0,73.3,68.3,73.1,68.6,65.8,98,86,59,30.17,30.09,16,2,16,0.00
2013-11-7,82.3,73.2,68.6,72.8,69.0,64.0,100,88,55,30.10,30.00,10,2,11,0.01
2013-11-8,79.8,69.3,64.0,67.8,64.3,58.0,99,85,58,30.17,30.04,20,5,20,0.00
2013-11-9,81.5,71.0,63.0,66.6,62.0,57.6,97,76,46,30.24,30.14,18,3,18,0.00
2013-11-10,85.6,72.1,63.1,69.6,64.8,59.7,100,81,43,30.22,30.14,13,2,13,0.00
2013-11-11,86.1,72.7,64.8,68.4,65.0,59.3,100,80,44,30.21,30.11,12,2,12,0.00
2013-11-12,81.5,70.7,64.3,70.9,65.7,61.6,100,86,54,30.15,30.04,11,2,11,0.00
2013-11-13,67.3,62.5,57.9,62.2,54.6,50.0,89,76,59,30.36,30.12,27,8,27,0.00
2013-11-14,77.7,66.1,56.2,60.1,55.5,50.0,93,71,42,30.34,30.22,19,3,19,0.00
2013-11-15,79.3,68.9,60.8,67.9,64.2,58.8,96,86,60,30.24,30.12,12,1,12,0.06
2013-11-16,78.0,71.9,68.5,73.9,70.5,67.5,100,95,83,30.19,30.08,9,1,9,0.18
2013-11-17,84.2,75.9,69.0,74.5,69.9,65.6,100,84,54,30.14,30.04,14,2,14,0.00
2013-11-18,84.3,76.5,71.7,72.9,69.7,66.4,97,81,55,30.08,29.96,12,2,12,0.00
2013-11-19,80.5,72.2,66.7,70.7,64.9,56.8,98,80,45,30.03,29.93,14,4,14,0.00
2013-11-20,81.5,73.0,66.9,72.0,69.1,65.4,97,88,64,30.16,30.01,18,3,18,0.04
2013-11-21,79.3,72.6,70.2,74.1,70.9,69.3,99,95,78,30.23,30.14,18,3,18,0.11
2013-11-22,80.5,74.0,69.5,71.8,68.8,64.4,98,85,58,30.23,30.14,16,3,16,0.00
2013-11-23,87.5,74.3,65.6,72.5,66.2,59.3,100,79,39,30.14,30.02,10,1,10,0.00
2013-11-24,71.7,66.0,62.4,68.1,60.6,53.5,98,83,67,30.27,30.06,25,7,25,0.00
2013-11-25,76.0,68.1,61.6,65.5,58.3,53.6,89,72,48,30.28,30.11,22,6,22,0.00
2013-11-26,81.8,74.9,68.2,72.9,70.3,65.6,98,86,66,30.11,29.76,24,5,24,0.15
2013-11-27,75.4,63.1,44.3,73.5,58.2,39.1,97,85,61,30.23,29.71,27,8,27,0.18
2013-11-28,67.4,52.3,38.2,54.0,46.2,36.4,95,81,52,30.37,30.23,16,6,16,0.00
2013-11-29,72.3,60.5,52.3,61.5,56.2,51.7,100,87,64,30.39,30.31,20,6,20,0.00
2013-11-30,78.1,66.4,59.2,67.6,62.6,57.6,100,89,54,30.34,30.21,19,5,19,0.01
2013-12-1,75.0,66.2,62.5,67.9,64.7,62.5,100,95,73,30.21,30.01,12,2,12,0.00
2013-12-2,73.1,65.3,61.5,65.1,60.4,51.9,100,86,49,30.01,29.83,14,2,14,0.00
2013-12-3,78.4,67.5,57.7,64.6,59.8,55.3,100,79,47,30.02,29.91,12,1,12,0.00
2013-12-4,82.0,71.9,63.8,67.7,64.9,60.9,97,80,50,30.12,30.00,14,1,14,0.00
2013-12-5,82.8,73.4,65.8,69.4,66.5,61.6,97,81,51,30.20,30.10,12,2,12,0.00
2013-12-6,83.4,74.7,67.9,72.8,69.1,65.5,100,84,56,30.21,30.11,18,2,18,0.00
2013-12-7,85.7,74.7,68.1,71.1,66.5,58.4,98,79,42,30.27,30.16,10,1,10,0.00
2013-12-8,82.8,73.5,64.4,72.7,67.4,58.9,100,84,46,30.26,30.14,15,2,15,0.00
2013-12-9,83.6,74.5,66.2,73.4,67.5,61.5,100,81,49,30.22,30.10,15,2,15,0.00
2013-12-10,83.8,74.1,65.6,71.4,65.7,59.5,99,78,45,30.22,30.08,16,3,16,0.00
2013-12-11,85.7,70.6,60.9,70.2,63.5,57.9,95,80,47,30.27,30.16,15,3,15,0.00
2013-12-12,70.7,62.0,54.8,62.7,51.5,35.1,99,73,30,30.34,30.22,20,6,20,0.00
2013-12-13,75.7,62.0,49.7,60.0,54.1,48.9,100,78,45,30.29,30.15,17,3,17,0.00
2013-12-14,81.3,72.2,63.5,73.0,67.3,58.8,95,85,63,30.15,29.96,21,4,21,0.00
2013-12-15,73.0,68.7,60.6,71.6,64.4,58.5,98,87,62,30.14,29.90,15,4,24,0.09
2013-12-16,68.2,56.6,48.2,59.0,49.8,46.6,96,80,48,30.26,30.13,14,3,14,0.00
2013-12-17,75.0,58.3,46.0,56.1,51.2,46.0,100,81,46,30.27,30.16,11,1,11,0.00
2013-12-18,72.0,57.4,46.3,53.0,46.9,41.6,100,73,37,30.30,30.21,16,1,16,0.00
2013-12-19,78.5,61.1,46.6,60.5,53.0,46.2,100,78,42,30.31,30.20,13,1,13,0.00
2013-12-20,82.0,67.7,54.6,66.6,59.9,54.6,100,79,47,30.24,30.13,13,2,13,0.00
2013-12-21,83.0,73.5,65.4,73.1,69.1,64.9,100,87,56,30.18,30.06,18,3,18,0.00
2013-12-22,83.5,75.3,69.1,73.1,69.5,64.5,100,84,54,30.17,30.09,19,3,19,0.00
2013-12-23,84.3,75.9,68.6,74.1,69.3,64.5,100,82,52,30.19,30.09,18,3,18,0.00
2013-12-24,73.0,63.9,53.0,72.0,54.9,30.1,100,76,26,30.29,30.11,21,5,21,0.01
2013-12-25,77.7,60.5,47.1,59.5,52.1,45.0,98,77,40,30.27,30.18,18,3,18,0.00
2013-12-26,80.4,64.2,57.3,65.4,60.4,57.3,100,89,51,30.24,30.12,16,3,16,0.00
2013-12-27,71.9,65.5,60.4,66.7,63.9,60.1,99,95,83,30.28,30.19,14,4,14,0.00
2013-12-28,76.2,70.7,65.4,73.2,69.3,65.1,100,96,80,30.25,30.04,20,3,20,0.26
2013-12-29,78.2,73.1,66.5,74.0,71.4,66.5,100,95,76,30.04,29.90,29,3,29,0.73
2013-12-30,72.8,63.0,58.2,66.5,59.4,51.9,100,89,53,30.23,30.01,13,2,13,0.01
2013-12-31,71.5,62.2,57.8,57.6,54.2,47.8,96,77,45,30.33,30.19,13,3,13,0.00
2014-1-1,66.8,62.4,59.4,65.6,61.7,57.3,100,97,92,30.28,30.09,13,2,13,0.04
2014-1-2,80.0,69.0,59.7,73.5,67.5,57.1,100,95,71,30.09,29.83,23,4,31,0.32